Location: Boiro
(42.6475°N, 8.8834°W)
Time: 18:37:28
(UTC+01:00)

Tiros 1 - Pass Details

Date: 15 December 2021
Orbit: 630 x 663 km, 48.4° (Epoch: 20 January)

Event Time Altitude Azimuth Distance (km) Brightness Sun altitude
Rises 21:04:44 0° 296° (WNW) 2,927 11.4 -32.5°
Reaches altitude 10° 21:07:03 10° 295° (WNW) 2,021 10.4 -32.9°
Enters shadow 21:09:01 25° 292° (WNW) 1,284 9.1 -33.3°
Maximum altitude 21:11:42 78° 210° (SSW) 656 - -33.7°
Drops below altitude 10° 21:16:23 10° 124° (SE) 2,033 - -34.6°
Sets 21:18:43 0° 123° (ESE) 2,946 - -35.0°
